Location: Petruro
(41.0333°N, 14.7833°E)
Time: 09:17:14
(UTC+00:00)

DELTA 2 R/B (1) - Pass Details

Date: 26 October 2021
Orbit: 790 x 802 km, 39.6° (Epoch: 28 November)

Event Time Altitude Azimuth Distance (km) Brightness Sun altitude
Rises 18:46:44 0° 232° (SW) 3,292 7.3 -31.2°
Reaches altitude 10° 18:49:20 10° 225° (SW) 2,362 6.4 -31.7°
Enters shadow 18:51:36 23° 212° (SSW) 1,627 5.3 -32.1°
